Preview of NWS' New Version of Forecast
This preview is not operational and should not be used for support decisions.

Regional Weather Roundup (RWR)

Issued by National Weather Service (NWS)

                            
000
ASUS43 KTOP 230208
RWRKS 

WEATHER ROUNDUP FOR KANSAS
NATIONAL WEATHER SERVICE GOODLAND KS
800 PM CST FRI FEB 22 2019

NOTE:  "FAIR" INDICATES FEW OR NO CLOUDS BELOW 12,000 FEET WITH NO
SIGNIFICANT WEATHER AND/OR OBSTRUCTIONS TO VISIBILITY.

KSZ001>006-013>018-027>032-041>047-230300-
NORTHWEST KANSAS
  
CITY           SKY/WX    TMP DP  RH WIND       PRES   REMARKS
GOODLAND       CLOUDY    34  34 100 SE9       29.79R FOG              
HAYS           FOG       33  32  96 SE8       29.92S VSB 3/4          
HILL CITY      FOG       32  32 100 E10       29.91R VSB 1   WCI  24  
RUSSELL        FOG       33  33 100 E8        29.91S VSB 1/2          
$$

KSZ061>065-074>080-084>089-230300-
SOUTHWEST KANSAS
  
CITY           SKY/WX    TMP DP  RH WIND       PRES   REMARKS
DODGE CITY     CLOUDY    36  34  92 SE16      29.86S FOG     WCI  26  
ELKHART        CLEAR     36  36  99 SE14      29.78R WCI  27          
GARDEN CITY    CLOUDY    36  35  96 SE20      29.82S FOG     WCI  25  
GREAT BEND     LGT RAIN  33  33 100 E8        29.91F VSB 1/2          
LIBERAL        CLOUDY    41  36  82 SE13      29.83F                  
PRATT          CLOUDY    36  34  95 E5        29.92S FOG              
$$

KSZ066>073-081>083-090>101-230300-
SOUTHEAST KANSAS
  
CITY           SKY/WX    TMP DP  RH WIND       PRES   REMARKS
CHANUTE        CLOUDY    42  40  92 E12       29.97F FOG              
COFFEYVILLE    LGT RAIN  43  42  97 E8        29.96F FOG              
HUTCHINSON     FOG       37  37 100 E7        29.93F VSB 1/4          
MEDICINE LODGE   N/A     38  38 100 NE3       29.91F                  
NEWTON         FOG       36  36 100 E6        29.95F VSB 1/2          
PARSONS        CLOUDY    42  41  96 MISG      29.97F FOG              
WICHITA INTL   FOG       40  40 100 E9        29.93S VSB 3/4          
WICHITA JABRA  LGT RAIN  38  37  97 E7        29.93F VSB 3/4          
WICHITA MCCONL LGT RAIN  39  39 100 NE6       29.92  FOG              
WINFIELD       CLOUDY    40  39  97 E7        29.94F FOG              
$$

KSZ007>012-019>026-033>040-048>060-102>105-230300-
NORTHEAST KANSAS
  
CITY           SKY/WX    TMP DP  RH WIND       PRES   REMARKS
CONCORDIA      CLOUDY    33  32  96 E9        29.98S FOG              
EMPORIA        RAIN      35  35 100 E10       29.95F VSB 1/4 WCI  27  
LAWRENCE       CLOUDY    36  34  92 E12       30.01F FOG     WCI  28  
MANHATTAN      CLOUDY    36  34  92 E6        30.00S                  
MARYSVILLE     CLOUDY    32  32 100 E6        30.01F FOG              
OLATHE IND     CLOUDY    36  36 100 E8        30.01F FOG              
OLATHE EXE     CLOUDY    35  35 100 E9        30.02S FOG              
SALINA         CLOUDY    37  37 100 E5        29.96F FOG              
TOPEKA BILLARD CLOUDY    36  33  89 E8        30.01F FOG              
TOPEKA FORBES  CLOUDY    36  34  92 E9        29.99F FOG              
$$